Location: Unspecified
(41.5000°N, 0.0000°E)
Time: 02:57:52
(UTC+00:00)

Vanguard 1 - Pass Details

Date: 20 June 2019
Orbit: 653 x 3830 km, 34.3° (Epoch: 12 October)

Event Time Altitude Azimuth Distance (km) Brightness Sun altitude
Exits shadow 00:35:21 22° 156° (SSE) 5,045 13.2 -24.6°
Maximum altitude 00:37:39 23° 147° (SSE) 4,833 13.1 -24.5°
Drops below altitude 10° 00:47:50 10° 103° (ESE) 4,856 13.6 -24.2°
Sets 00:52:03 0° 89° (E) 5,384 14.0 -24.0°
